Simultaneous Nadir Overpasses (SNOs) Predictions

Prediction of SNOs between AQUA and METOP-B Satellite Orbit:

Table of predicted SNOs for the next 14.0 days since TLE Epoch: 10/28/2017
Index Date (AQUA) Time (AQUA) Lat,Lon (AQUA) SZA (AQUA ) Date (METOP-B) Time (METOP-B) Lat,Lon (METOP-B) SZA (METOP-B ) Distance(km) Time Diff (sec)
1 10/29/2017 00:09:47 73.75, 171.88 87.10 10/29/2017 00:08:56 73.74, 171.78 87.10 3.17 51
2 10/29/2017 00:59:14 -73.81, -20.62 92.82 10/29/2017 00:59:36 -73.82, -20.71 92.82 3.01 22
3 10/29/2017 01:48:56 74.57, 145.26 87.97 10/29/2017 01:50:01 74.56, 148.49 87.94 95.64 65
4 10/31/2017 19:44:03 73.78,-121.76 88.06 10/31/2017 19:43:18 73.76,-121.76 88.04 2.38 45
5 10/31/2017 20:33:30 -73.84, 45.75 91.88 10/31/2017 20:33:58 -73.84, 45.74 91.88 0.53 28
6 11/03/2017 15:18:18 73.78, -55.31 88.94 11/03/2017 15:17:40 73.77, -55.32 88.94 0.79 38
7 11/03/2017 16:07:45 -73.83, 112.22 91.00 11/03/2017 16:08:20 -73.85, 112.18 90.98 2.38 35
8 11/06/2017 10:52:32 73.79, 11.11 89.81 11/06/2017 10:52:01 73.78, 11.10 89.80 1.22 31
9 11/06/2017 11:41:59 -73.83, 178.65 90.14 11/06/2017 11:42:41 -73.86, 178.61 90.12 2.91 42
10 11/09/2017 06:26:47 73.81, 77.50 90.65 11/09/2017 06:26:23 73.78, 77.50 90.62 3.74 24
11 11/09/2017 07:16:14 -73.85,-114.94 89.31 11/09/2017 07:17:03 -73.85,-114.98 89.30 1.57 49




NCC Satellite Simultaneous Nadir Overpasses (SNOs) Prediction Service
